www.pogodaiklimat.ru

Погода и климат >> Архив погоды >> Россия >> Красноярский край >> Светлогорск


ПОГОДА в Светлогорске

  • Прогноз погоды в Светлогорске
  • Монитор погоды в Светлогорске

АРХИВ ПОГОДЫ в Светлогорске

Время (UTC), дата Ветер
(напр.,м/с)
 
Видим.   Явления Облачность Т
(С)
Тd
(С)
f
(%)
Тe
(С)
Тes
(С)
Комфортность P
(гПа)
Po
(гПа)
Тmin
(С)
Tmax
(С)
R
(мм)
R24
(мм)
S
(см)
06 12.02 Ю 3
{10}
н/о н/о -18.7 -22.7 71 -26 -26 1019.9 1006.2
09 12.02 Ю 4 н/о н/о -17.6 -21.3 73 -26 -26 1018.4 1004.8
12 12.02 Ю 3 н/о н/о -17.2 -19.9 79 -24 -24 1018.1 1004.5 -17.2 2
15 12.02 Ю 4
{10}
н/о н/о -17.8 -21.0 76 -26 -26 1018.2 1004.6
18 12.02 Ю 3 н/о н/о -17.7 -20.8 77 -25 -25 1018.0 1004.4
21 12.02 Ю 3 н/о н/о -16.8 -19.4 80 -24 -24 1017.9 1004.3
00 13.02 Ю 3 н/о н/о -16.0 -18.6 80 -23 -23 1017.9 1004.4 -17.9 4 89
03 13.02 Ю 3 н/о н/о -15.6 -18.2 80 -22 -22 1018.4 1004.9
09 13.02 Ю 3 н/о н/о -14.4 -17.3 79 -21 -21 1019.7 1006.2
12 13.02 Ю 3 н/о н/о -15.0 -17.8 79 -22 -22 1020.7 1007.2 0.0 1
15 13.02 Ю 4 н/о н/о -15.4 -18.5 77 -23 -23 1020.8 1007.3
18 13.02 Ю 4 н/о н/о -15.6 -18.7 77 -24 -24 1020.4 1006.9
21 13.02 Ю 4 н/о н/о -15.9 -19.0 77 -24 -24 1019.3 1005.7
00 14.02 Ю 5 н/о н/о -15.8 -18.9 77 -25 -25 1016.8 1003.3 -15.9 0.8 93
03 14.02 Ю 4
{10}
н/о н/о -14.8 -17.5 80 -23 -23 1014.7 1001.2
06 14.02 Ю 4 н/о н/о -14.4 -17.0 81 -22 -22 1013.5 1000.1
09 14.02 Ю 4
{10}
н/о н/о -13.6 -16.0 82 -21 -21 1012.4 999.1
12 14.02 Ю 3 н/о н/о -12.8 -15.2 82 -19 -19 1010.3 997.1 -12.8 5
15 14.02 Ю 4 н/о н/о -11.8 -14.2 82 -19 -19 1006.7 993.5
18 14.02 Ю 6 н/о н/о -9.6 -11.8 84 -18 -18 1002.8 989.7
21 14.02 Ю 5-10
{13}
н/о н/о -8.2 -10.2 85 -16 -16 1000.3 987.4
00 15.02 ЮЗ 7-11
{13}
н/о н/о -6.6 -8.8 84 -15 -15 999.1 986.3 -12.8 5 97
03 15.02 ЮЗ 7-12
{13}
н/о н/о -6.2 -8.6 83 -15 -15 998.0 985.2
06 15.02 ЮЗ 6-11
{13}
н/о н/о -6.0 -7.9 86 -14 -14 998.2 985.5
09 15.02 ЮЗ 6-10
{14}
н/о н/о -6.3 -9.0 81 -14 -14 1000.2 987.4
12 15.02 ЮЗ 3
{11}
н/о н/о -9.8 -12.3 82 -16 -16 1003.7 990.7 -5.8 4
15 15.02 ЮЗ 3 н/о н/о -16.0 -19.1 77 -23 -23 1006.5 993.1
18 15.02 З 3 н/о н/о -20.2 -23.3 76 -28 -28 1009.4 995.7
21 15.02 ЮЗ 2 н/о н/о -23.6 -26.3 78 -30 -30 1012.1 998.3
00 16.02 С 1 н/о н/о -30.0 -33.4 72 -34 -34 опасность
обморожения
1013.4 999.1 -30.0
03 16.02 СВ 2 н/о н/о -33.0 -37.1 67 -41 -41 опасность
обморожения
1013.2 998.8 -34.7
06 16.02 СВ 3 н/о н/о -25.5 -28.6 75 -34 -34 опасность
обморожения
1010.4 996.4
09 16.02 СВ 4 н/о н/о -23.4 -26.6 75 -33 -33 опасность
обморожения
1007.7 993.9
12 16.02 В 4-10
{10}
н/о н/о -21.1 -24.9 71 -30 -30 1005.2 991.6 -21.1
15 16.02 СВ 2
{10}
н/о н/о -21.1 -24.5 74 -27 -27 1003.5 989.9
18 16.02 В 3 н/о н/о -21.3 -24.4 76 -29 -29 1001.9 988.3
21 16.02 В 3 н/о н/о -21.2 -24.2 77 -29 -29 1001.2 987.6
00 17.02 В 1 н/о н/о -20.7 -23.5 78 -24 -24 1000.9 987.3 -22.1
03 17.02 С 1 н/о н/о -24.0 -27.0 76 -27 -27 1002.1 988.3 -24.0
06 17.02 Ю 2 н/о н/о -20.7 -24.5 71 -27 -27 1003.1 989.5
09 17.02 ЮЗ 2 н/о н/о -20.4 -23.9 73 -26 -26 1004.4 990.8
12 17.02 СВ 1 н/о н/о -25.6 -28.3 78 -29 -29 1005.4 991.5 -19.8
15 17.02 СВ 2 н/о н/о -22.4 -25.3 77 -29 -29 1004.6 990.9
18 17.02 СВ 2 н/о н/о -20.6 -23.4 78 -27 -27 1003.9 990.3
21 17.02 СВ 3 н/о н/о -20.7 -23.5 78 -28 -28 1002.7 989.1
00 18.02 СВ 3 н/о н/о -22.0 -25.0 77 -30 -30 1001.9 988.3 -26.9 100
03 18.02 СВ 3 н/о н/о -21.6 -24.7 76 -30 -30 1001.7 988.1
06 18.02 СВ 3 н/о н/о -20.9 -24.5 73 -29 -29 1001.4 987.8
09 18.02 В 3 н/о н/о -19.3 -23.1 72 -27 -27 1001.5 988.0
12 18.02 В 2 н/о н/о -21.2 -24.3 76 -27 -27 1002.4 988.8 -19.2
15 18.02 В 2 н/о н/о -23.2 -26.4 75 -30 -30 1003.0 989.3
18 18.02 В 1 н/о н/о -24.2 -27.4 75 -28 -28 1003.6 989.8
21 18.02 В 1 н/о н/о -24.6 -27.9 74 -28 -28 1004.5 990.7
00 19.02 СВ 2 н/о н/о -24.7 -28.0 74 -31 -31 опасность
обморожения
1004.9 991.1 -25.1 0.4 100

 

Местоположение метеостанции Светлогорск (Красноярский край, Россия): широта 66.95 долгота 88.42 высота над уровнем моря 101 м.

В архиве по умолчанию представлена погода в Светлогорске за последнюю неделю. Архивные данные за месяц целиком и за предыдущие месяцы, начиная с января 2011 года, Вы можете получить, выбрав интересующий диапазон дат из раскрывающегося списка и нажав кнопку "Ввод!".


*Определитесь, кто Вы:
робот инопланетянин человек

Внимание! Время в таблицах - всемирное. Для получения местного времени необходимо прибавить поправку, которая равна 7 ч.

Смотрите также архив погоды в соседних городах и на ближайших метеорологических станциях:

Погода в Горбиачине (Красноярский край, Россия) (64 км)
Погода в Курейке (Красноярский край, Россия) (75 км)
Погода в Игарке (Красноярский край, Россия) (98 км)
Погода в Снежногорске (Красноярский край, Россия) (131 км)
Погода в Туруханске (Красноярский край, Россия) (132 км)
Погода в Большом Пороге (Эвенкия, Россия) (164 км)
Погода в Советской Речке (Красноярский край, Россия) (202 км)
Погода в Потапово (Красноярский край, Россия) (212 км)
Погода в Агате (Эвенкия, Россия) (220 км)
Погода в Норильске (Красноярский край, Россия) (265 км)

Пояснения к столбцам:

Ветер - указаны скорость ветра в м/с - средняя за 10 мин, порывы в срок и между сроками (в фигурных скобках) и направление, откуда дует ветер: С - северный, СВ - северо-восточный, В - восточный, ЮВ - юго-восточный, Ю - южный, ЮЗ - юго-западный, З - западный, СЗ - северо-западный.
Видимость - горизонтальная дальность видимости в метрах или километрах. При видимости от 1 до 10 км при отсутствии осадков обычно наблюдается дымка, при ухудшении видимости до 1 км и менее - туман. В сухую погоду видимость может ухудшаться дымом, пылью или мглою.
Явления - указаны атмосферные явления, наблюдавшиеся в срок или в последний час перед сроком; фигурными скобками обозначены явления, наблюдавшиеся между сроками (за 1-3 часа до срока); квадратными скобками обозначены град или гололедные отложения с указанием их диаметра в мм.
Облачность - указаны через наклонную черту общая и нижняя облачность в баллах и высота нижней границы облаков в метрах; квадратными скобками обозначены формы облаков: Ci - перистые, Cs - перисто-слоистые, Cc - перисто-кучевые, Ac - высококучевые, As - высокослоистые, Sc - слоисто-кучевые, Ns - слоисто-дождевые, Cu - кучевые, Cb - кучево-дождевые. Подробнее классификацию облаков см. в Атласе облаков (PDF).
T - Температура воздуха - температура, измеренная на высоте 2 м над землей.
Td - Температура точки росы - температура, при понижении до которой содержащийся в воздухе водяной пар достигнет насыщения.
f - Относительная влажность воздуха - влажноcть воздуха, измеренная на высоте 2 м над землей.
Te - Эффективная температура - температура, которую ощущает одетый по сезону человек в тени. Характеристика душности погоды. При расчете учитывается влияние влажности воздуха и скорости ветра на теплоощущения человека.
Tes - Эффективная температура на солнце - температура, которую ощущает человек, с поправкой на солнечный нагрев. Характеристика знойности погоды. Зависит от высоты солнца над горизонтом, облачности и скорости ветра. Ночью, в пасмурную погоду, а также при ветре 12 м/с и более поправка равна нулю.
P - Атмосферное давление - приведенное к уровню моря атмосферное давление.
Po - Атмосферное давление - измеренное на уровне метеостанции атмосферное давление.
Tmin - Минимальная температура - минимум температуры воздуха на высоте 2 м над землей.
Tmax - Максимальная температура - максимум температуры воздуха на высоте 2 м над землей.
R - Количество осадков - Количество выпавших осадков за период времени, мм. При наведении курсора мыши на число - период времени, за который выпало указанное количество осадков.
R24 - Количество осадков - Количество выпавших осадков за 24 часа, мм.
S - Снежный покров - Высота снежного покрова, см. При наведении курсора мыши на число - состояние снежного покрова и степень покрытия местности в баллах.